This is the latest recevied weather packets stored in our database for station/object WX4ET. If no packets are shown the sender has not sent any weather packets the latest 10 day(s).
| Time | Temp. | Humidity | Pressure | Rain* | Wind** | Luminosity | Snow |
|---|---|---|---|---|---|---|---|
| 1777900925 | 11.11° C | 76% | 1014.1 hPa | 0 mm | - | 80 W/m² | - |
| 1777900622 | 11.11° C | 78% | 1013.9 hPa | 0 mm | - | 77 W/m² | - |
| 1777900319 | 10.56° C | 77% | 1014 hPa | 0 mm | - | 75 W/m² | - |
| 1777900016 | 10.56° C | 78% | 1013.8 hPa | 0 mm | - | 97 W/m² | - |
| 1777899712 | 10.56° C | 77% | 1013.5 hPa | 0 mm | - | 85 W/m² | - |
| 1777899410 | 10.56° C | 80% | 1013.4 hPa | 0 mm | - | 90 W/m² | - |
| 1777899107 | 10° C | 79% | 1013.4 hPa | 0 mm | - | 85 W/m² | - |
| 1777898804 | 9.44° C | 79% | 1013.5 hPa | 0 mm | - | 103 W/m² | - |
| 1777898502 | 10.56° C | 78% | 1013.2 hPa | 0 mm | - | 117 W/m² | - |
| 1777898199 | 10° C | 76% | 1013.3 hPa | 0 mm | - | 176 W/m² | - |
| 1777897896 | 10.56° C | 76% | 1013 hPa | 0 mm | - | 142 W/m² | - |
| 1777897592 | 9.44° C | 82% | 1012.9 hPa | 0 mm | - | 139 W/m² | - |
| 1777897287 | 8.33° C | 86% | 1012.7 hPa | 0 mm | - | 75 W/m² | - |
| 1777896984 | 7.78° C | 86% | 1012.6 hPa | 0 mm | - | 55 W/m² | - |
| 1777896681 | 7.78° C | 86% | 1012.7 hPa | 0 mm | - | 53 W/m² | - |
| 1777896378 | 7.78° C | 87% | 1012.9 hPa | 0 mm | - | 50 W/m² | - |
| 1777896076 | 8.33° C | 87% | 1012.5 hPa | 0 mm | - | 37 W/m² | - |
| 1777895774 | 8.33° C | 86% | 1012.6 hPa | 0 mm | - | 42 W/m² | - |
| 1777895471 | 8.33° C | 85% | 1012.8 hPa | 0 mm | - | 53 W/m² | - |
| 1777895169 | 8.33° C | 85% | 1012.7 hPa | 0 mm | - | 68 W/m² | - |
| 1777894865 | 7.78° C | 86% | 1012.7 hPa | 0 mm | - | 65 W/m² | - |
| 1777894563 | 7.22° C | 88% | 1012.9 hPa | 0 mm | - | 52 W/m² | - |
| 1777894260 | 6.67° C | 89% | 1012.9 hPa | 0 mm | - | 56 W/m² | - |
| 1777893957 | 6.67° C | 89% | 1012.8 hPa | 0 mm | - | 39 W/m² | - |
| 1777893653 | 6.67° C | 90% | 1012.5 hPa | 0 mm | - | 32 W/m² | - |
* Rain latest hour (hover to see other rain measurements)
** Current wind speed in m/s (hover to see current wind gust speed)